Time,TemperatureF,DewpointF,PressureIn,WindDirection,WindDirectionDegrees,WindSpeedMPH,WindSpeedGustMPH,Humidity,HourlyPrecipIn,Conditions,Clouds,dailyrainin,SolarRadiationWatts/m^2,SoftwareType,DateUTC
2013-07-08 00:02:00,74.0,72.0,-100.00,West,276,3.0,6.0,95,0.00,,,0.00,0.000000,,2013-07-08 04:02:00,
2013-07-08 00:33:00,73.0,72.0,-100.00,WSW,257,4.0,6.0,97,0.00,,,0.00,0.000000,,2013-07-08 04:33:00,
2013-07-08 00:42:00,73.0,72.0,-100.00,WSW,257,4.0,6.0,97,0.00,,,0.00,0.000000,,2013-07-08 04:42:00,
2013-07-08 00:53:00,73.0,72.0,-100.00,WSW,257,4.0,6.0,97,0.00,,,0.00,0.000000,,2013-07-08 04:53:00,
2013-07-08 01:01:00,73.0,72.0,-100.00,WSW,257,4.0,6.0,97,0.00,,,0.00,0.000000,,2013-07-08 05:01:00,
2013-07-08 01:34:00,73.0,72.0,-100.00,WNW,294,3.0,7.0,98,0.00,,,0.00,0.000000,,2013-07-08 05:34:00,
2013-07-08 01:43:00,73.0,72.0,-100.00,WNW,294,3.0,7.0,98,0.00,,,0.00,0.000000,,2013-07-08 05:43:00,
2013-07-08 01:53:00,73.0,72.0,-100.00,WNW,294,3.0,7.0,98,0.00,,,0.00,0.000000,,2013-07-08 05:53:00,
2013-07-08 02:01:00,73.0,72.0,-100.00,WNW,294,3.0,7.0,98,0.00,,,0.00,0.000000,,2013-07-08 06:01:00,
2013-07-08 02:34:00,73.0,72.0,-100.00,WNW,289,1.0,5.0,98,0.00,,,0.00,0.000000,,2013-07-08 06:34:00,
2013-07-08 02:43:00,73.0,72.0,-100.00,WNW,289,1.0,5.0,98,0.00,,,0.00,0.000000,,2013-07-08 06:43:00,
2013-07-08 02:53:00,73.0,72.0,-100.00,WNW,289,1.0,5.0,98,0.00,,,0.00,0.000000,,2013-07-08 06:53:00,
2013-07-08 03:02:00,73.0,72.0,-100.00,WNW,289,1.0,5.0,98,0.00,,,0.00,0.000000,,2013-07-08 07:02:00,
2013-07-08 03:34:00,72.0,71.0,-100.00,North,11,0.0,5.0,98,0.00,,,-99.99,0.000000,,2013-07-08 07:34:00,
2013-07-08 03:44:00,72.0,71.0,-100.00,North,11,0.0,5.0,98,0.00,,,-99.99,0.000000,,2013-07-08 07:44:00,
2013-07-08 03:53:00,72.0,71.0,-100.00,North,11,0.0,5.0,98,0.00,,,-99.99,0.000000,,2013-07-08 07:53:00,
2013-07-08 04:02:00,72.0,71.0,-100.00,North,11,0.0,5.0,98,0.00,,,-99.99,0.000000,,2013-07-08 08:02:00,
2013-07-08 04:34:00,73.0,72.0,-100.00,West,269,1.0,4.0,98,0.00,,,0.00,0.000000,,2013-07-08 08:34:00,
2013-07-08 04:42:00,73.0,72.0,-100.00,West,269,1.0,4.0,98,0.00,,,0.00,0.000000,,2013-07-08 08:42:00,
2013-07-08 04:53:00,73.0,72.0,-100.00,West,269,1.0,4.0,98,0.00,,,0.00,0.000000,,2013-07-08 08:53:00,
2013-07-08 05:02:00,73.0,72.0,-100.00,West,269,1.0,4.0,98,0.00,,,0.00,0.000000,,2013-07-08 09:02:00,
2013-07-08 05:34:00,73.0,72.0,-100.00,West,279,2.0,5.0,98,0.00,,,0.00,0.000000,,2013-07-08 09:34:00,
2013-07-08 05:43:00,73.0,72.0,-100.00,West,279,2.0,5.0,98,0.00,,,0.00,0.000000,,2013-07-08 09:43:00,
2013-07-08 05:53:00,73.0,72.0,-100.00,West,279,2.0,5.0,98,0.00,,,0.00,0.000000,,2013-07-08 09:53:00,
2013-07-08 06:02:00,73.0,72.0,-100.00,West,279,2.0,5.0,98,0.00,,,0.00,0.000000,,2013-07-08 10:02:00,
2013-07-08 06:34:00,73.0,73.0,-100.00,West,267,3.0,5.0,99,0.00,,,0.00,0.000000,,2013-07-08 10:34:00,
2013-07-08 06:43:00,73.0,73.0,-100.00,West,267,3.0,5.0,99,0.00,,,0.00,0.000000,,2013-07-08 10:43:00,
2013-07-08 06:53:00,73.0,73.0,-100.00,West,267,3.0,5.0,99,0.00,,,0.00,0.000000,,2013-07-08 10:53:00,
2013-07-08 07:02:00,73.0,73.0,-100.00,West,267,3.0,5.0,99,0.00,,,0.00,0.000000,,2013-07-08 11:02:00,
2013-07-08 07:33:00,73.0,73.0,-100.00,WNW,297,2.0,5.0,99,0.00,,,0.00,13.000000,,2013-07-08 11:33:00,
2013-07-08 07:43:00,73.0,73.0,-100.00,WNW,297,2.0,5.0,99,0.00,,,0.00,13.000000,,2013-07-08 11:43:00,
2013-07-08 07:53:00,73.0,73.0,-100.00,WNW,297,2.0,5.0,99,0.00,,,0.00,13.000000,,2013-07-08 11:53:00,
2013-07-08 08:01:00,73.0,73.0,-100.00,WNW,297,2.0,5.0,99,0.00,,,0.00,13.000000,,2013-07-08 12:01:00,
2013-07-08 08:34:00,75.0,74.0,-100.00,NW,311,4.0,7.0,98,0.00,,,0.00,86.000000,,2013-07-08 12:34:00,
2013-07-08 08:43:00,75.0,74.0,-100.00,NW,311,4.0,7.0,98,0.00,,,0.00,86.000000,,2013-07-08 12:43:00,
2013-07-08 08:53:00,75.0,74.0,-100.00,NW,311,4.0,7.0,98,0.00,,,0.00,86.000000,,2013-07-08 12:53:00,
2013-07-08 09:02:00,75.0,74.0,-100.00,NW,311,4.0,7.0,98,0.00,,,0.00,86.000000,,2013-07-08 13:02:00,
2013-07-08 09:43:00,78.0,75.0,-100.00,WNW,303,6.0,12.0,90,0.00,,,0.00,160.000000,,2013-07-08 13:43:00,
2013-07-08 09:53:00,78.0,75.0,-100.00,WNW,303,6.0,12.0,90,0.00,,,0.00,160.000000,,2013-07-08 13:53:00,
2013-07-08 10:02:00,78.0,75.0,-100.00,WNW,303,6.0,12.0,90,0.00,,,0.00,160.000000,,2013-07-08 14:02:00,
2013-07-08 10:43:00,81.0,75.0,-100.00,NW,317,5.0,10.0,83,0.00,,,0.00,291.000000,,2013-07-08 14:43:00,
2013-07-08 10:53:00,81.0,75.0,-100.00,NW,317,5.0,10.0,83,0.00,,,0.00,291.000000,,2013-07-08 14:53:00,
2013-07-08 11:02:00,81.0,75.0,-100.00,NW,317,5.0,10.0,83,0.00,,,0.00,291.000000,,2013-07-08 15:02:00,
2013-07-08 11:43:00,82.0,74.0,-100.00,WNW,291,4.0,9.0,77,0.00,,,-99.99,357.000000,,2013-07-08 15:43:00,
2013-07-08 11:53:00,82.0,74.0,-100.00,WNW,291,4.0,9.0,77,0.00,,,-99.99,357.000000,,2013-07-08 15:53:00,
2013-07-08 12:01:00,82.0,74.0,-100.00,WNW,291,4.0,9.0,77,0.00,,,-99.99,357.000000,,2013-07-08 16:01:00,
2013-07-08 12:05:00,83.0,78.0,-100.00,NW,325,3.0,5.0,84,0.00,,,0.00,271.000000,,2013-07-08 16:05:00,
2013-07-08 12:43:00,83.0,78.0,-100.00,NW,325,3.0,5.0,84,0.00,,,0.00,271.000000,,2013-07-08 16:43:00,
2013-07-08 12:58:00,83.0,78.0,-100.00,NW,325,3.0,5.0,84,0.00,,,0.00,271.000000,,2013-07-08 16:58:00,
2013-07-08 13:48:00,85.0,75.0,-100.00,NW,316,3.0,7.0,73,0.00,,,0.00,487.000000,,2013-07-08 17:48:00,
2013-07-08 14:05:00,88.0,75.0,-100.00,WSW,256,5.0,11.0,66,0.00,,,0.00,821.000000,,2013-07-08 18:05:00,
2013-07-08 14:56:00,88.0,75.0,-100.00,WSW,256,5.0,11.0,66,0.00,,,0.00,821.000000,,2013-07-08 18:56:00,
2013-07-08 15:05:00,89.0,77.0,-100.00,West,273,6.0,10.0,67,0.00,,,0.00,873.000000,,2013-07-08 19:05:00,
2013-07-08 15:42:00,89.0,77.0,-100.00,West,273,6.0,10.0,67,0.00,,,0.00,873.000000,,2013-07-08 19:42:00,
2013-07-08 15:58:00,89.0,77.0,-100.00,West,273,6.0,10.0,67,0.00,,,0.00,873.000000,,2013-07-08 19:58:00,
2013-07-08 16:05:00,81.0,76.0,-100.00,SW,227,3.0,10.0,84,0.00,,,0.00,201.000000,,2013-07-08 20:05:00,
2013-07-08 16:56:00,81.0,76.0,-100.00,SW,227,3.0,10.0,84,0.00,,,0.00,201.000000,,2013-07-08 20:56:00,
2013-07-08 17:05:00,77.0,75.0,-100.00,West,270,5.0,13.0,95,0.53,,,0.53,36.000000,,2013-07-08 21:05:00,
2013-07-08 17:47:00,77.0,75.0,-100.00,West,270,5.0,13.0,95,0.53,,,0.53,36.000000,,2013-07-08 21:47:00,
2013-07-08 19:05:00,80.0,79.0,-100.00,WNW,298,3.0,6.0,96,0.00,,,0.53,117.000000,,2013-07-08 23:05:00,
2013-07-08 20:00:00,80.0,79.0,-100.00,WNW,298,3.0,6.0,96,0.00,,,0.53,117.000000,,2013-07-09 00:00:00,
2013-07-08 20:05:00,79.0,78.0,-100.00,WNW,296,3.0,6.0,97,0.00,,,0.53,42.000000,,2013-07-09 00:05:00,
2013-07-08 20:45:00,79.0,78.0,-100.00,WNW,296,3.0,6.0,97,0.00,,,0.53,42.000000,,2013-07-09 00:45:00,
2013-07-08 20:59:00,79.0,78.0,-100.00,WNW,296,3.0,6.0,97,0.00,,,0.53,42.000000,,2013-07-09 00:59:00,
2013-07-08 21:05:00,77.0,76.0,-100.00,West,267,2.0,3.0,97,0.00,,,0.53,4.000000,,2013-07-09 01:05:00,
2013-07-08 22:05:00,76.0,75.0,-100.00,West,276,2.0,4.0,98,0.00,,,0.53,0.000000,,2013-07-09 02:05:00,